Regional Weather Roundup
Issued by NWS

Home | Current Version | Previous Version | Graphics & Text | Print | Product List | Glossary On
Versions: 1 2 3 4 5 6 7 8 9 10 11 12 13 14 15 16 17 18 19 20 21 22 23 24 25 26 27 28 29 30 31 32 33 34 35 36 37 38 39 40 41 42 43 44 45 46 47 48 49 50
000
ASUS43 KMKX 250500
RWRWI

WISCONSIN REGIONAL WEATHER ROUNDUP
NATIONAL WEATHER SERVICE MILWAUKEE/SULLIVAN WI
1100 PM CST FRI NOV 24 2017

NOTE: "FAIR" INDICATES FEW OR NO CLOUDS BELOW 12,000 FEET WITH NO
SIGNIFICANT WEATHER AND/OR OBSTRUCTIONS TO VISIBILITY.

WIZ001-002-006>008-014>016-023>028-250600-
NORTHWEST WISCONSIN

CITY           SKY/WX    TMP DP  RH WIND       PRES   REMARKS
SUPERIOR ARPT  CLOUDY    39  33  77 W9        29.62R WCI  33
ASHLAND        CLOUDY    40  33  76 W13       29.60R WCI  32
HAYWARD        PTCLDY    38  31  76 W6        29.64R WCI  33
SIREN          CLEAR     36  32  87 W7        29.69R WCI  30
CUMBERLAND     CLEAR     36  32  87 W8        29.67R WCI  29
RICE LAKE      PTCLDY    38  33  82 CALM      29.69R
CHETEK         CLOUDY    39  34  82 W8        29.68R WCI  33
LADYSMITH      CLOUDY    41  33  73 NW18G26   29.65R
EAU CLAIRE     NOT AVBL
MENOMONIE      CLEAR     40  34  79 W7        29.71R WCI  35
NEW RICHMOND   CLEAR     38  32  77 W9        29.72R WCI  32
OSCEOLA        CLEAR     39  33  77 W8        29.74R WCI  34
$$

WIZ003>005-009-010-017-018-250600-
NORTH CENTRAL WISCONSIN

CITY           SKY/WX    TMP DP  RH WIND       PRES   REMARKS
MANITOWISH WTR CLOUDY    37  37 100 W8        29.56R WCI  31
ARBOR VITAE    CLEAR     39  36  87 W7        29.56R WCI  34
WOODRUFF       CLEAR     39  36  87 W7        29.56R WCI  34
RHINELANDER    CLOUDY    39  35  86 NW9       29.57R WCI  33
EAGLE RIVER    CLOUDY    37  31  76 NW12G20   29.55R WCI  30
LAND O LAKES   CLOUDY    38  32  80 NW8G16    29.55R WCI  32
PHILLIPS       CLOUDY    38  34  84 W6        29.59R WCI  34
TOMAHAWK       CLOUDY    39  33  78 W8        29.59R WCI  33
MEDFORD        CLOUDY    39  33  79 NW14G21   29.60R WCI  31
MERRILL        CLOUDY    40  35  80 NW8       29.60R WCI  35
$$

WIZ029-030-035-036-043>047-250600-
CENTRAL WISCONSIN

CITY           SKY/WX    TMP DP  RH WIND       PRES   REMARKS
WAUSAU         CLOUDY    42  34  73 NW16G29   29.59R
MOSINEE        NOT AVBL
MARSHFIELD     CLOUDY    41  36  82 W8        29.63R
STEVENS POINT  CLOUDY    42  38  85 W10G16    29.60R
WAUPACA        CLOUDY    48  40  74 W14G23    29.58R
WAUTOMA        CLOUDY    46  39  76 NW18G24   29.62R
WISC RAPIDS    MOCLDY    44  36  73 NW14G32   29.64R
CAMP DOUGLAS   PTCLDY    44  41  87 NW18G25   29.66R
$$

WIZ011>013-019>022-031-037>040-048>050-250600-
NORTHEAST WISCONSIN

CITY           SKY/WX    TMP DP  RH WIND       PRES   REMARKS
ANTIGO         CLOUDY    39  35  84 NW12      29.56R WCI  32
SHAWANO        CLOUDY    46  39  76 NW8G16    29.56R
OCONTO         CLOUDY    46  41  85 NW8       29.51R
STURGEON BAY   CLOUDY    46  42  86 NW17      29.52R
GREEN BAY      CLOUDY    47  42  83 NW20G28   29.55R
MANITOWOC      CLOUDY    48  44  86 NW14      29.53R
APPLETON       MOCLDY    46  39  76 NW18G28   29.55R
CLINTONVILLE   CLOUDY    46  37  71 NW16G23   29.56R
OSHKOSH        MOCLDY    47  43  86 NW15G26   29.57R
$$

WIZ032>034-041-042-053>061-250600-
SOUTHWEST WISCONSIN

CITY           SKY/WX    TMP DP  RH WIND       PRES   REMARKS
LA CROSSE      CLEAR     45  37  73 NW16      29.71R
SPARTA         PTCLDY    44  39  81 NW14      29.69R
VIROQUA          N/A     43  40  89 NW13G18   29.70R
BOSCOBEL       CLEAR     49  40  71 NW10      29.71R
PRAIRIE DU CHI CLEAR     46  37  69 NW13G20   29.72R
PLATTEVILLE    CLEAR     49  42  79 NW18      29.67R
$$

WIZ056-057-062-063-064-067-068-250600-
SOUTH CENTRAL WISCONSIN

CITY           SKY/WX    TMP DP  RH WIND       PRES   REMARKS
REEDSBURG      MOCLDY    46  40  79 NW13G23   29.64R
BARABOO/DELLS  MOCLDY    47  39  74 NW12G22   29.63R
LONE ROCK      NOT AVBL
MINERAL POINT  CLEAR     50  43  76 NW16      29.65R
MADISON        PTCLDY    49  40  71 NW18G26   29.62R
MIDDLETON      PTCLDY    51  40  67 NW21G29   29.62R
WATERTOWN      CLOUDY    50  48  93 NW14G21   29.57R
MONROE         CLOUDY    52  43  71 NW17G24   29.62R
JANESVILLE     CLOUDY    54  43  66 NW21G26   29.58R
$$

WIZ051-052-058>065-066-070>072-250600-
SOUTHEAST WISCONSIN

CITY           SKY/WX    TMP DP  RH WIND       PRES   REMARKS
MILWAUKEE      MOCLDY    56  44  64 NW20G26   29.55R
WAUKESHA       LGT RAIN  50  41  71 W10       29.56R
MILWAUKEE/TIMM CLOUDY    52  41  66 NW14G21   29.54R
RACINE         MOCLDY    54  42  64 NW6       29.55R
BURLINGTON     PTCLDY    56  46  68 NW13      29.55R
KENOSHA        MOCLDY    53  41  63 NW9       29.55R
FOND DU LAC    PTCLDY    48  41  76 NW14G22   29.57R
SHEBOYGAN      CLOUDY    50  46  86 NW12G20   29.54R
WEST BEND      CLOUDY    50  45  81 NW16G24   29.53R
JUNEAU         CLOUDY    48  45  88 NW10G17   29.58R
$$

LSZ147-162-250600-
LAKE SUPERIOR

STATION/POSITION TIME  TEMP    WIND        PRES    WAVE
                       AIR SEA DIR/SP/G            HT/PER
                 (UTC) (F)     (DEG/KT/KT) (MB)    (FT/S)
DEVILS ISLAND    0400   42     280/ 19/ 22 1000.8R
SAXON HARBOR     0430   42     260/  7/ 11 1001.4R
$$

LMZ867-665-643>646-250600-
LAKE MICHIGAN

STATION/POSITION TIME  TEMP    WIND        PRES    WAVE
                       AIR SEA DIR/SP/G            HT/PER
                 (UTC) (F)     (DEG/KT/KT) (MB)    (FT/S)
N MID LAKE BUOY  0350   45 47  310/ 10/ 12  997.0R   7/ 8
NORTHPORT PIER   0440   46     290/  6/ 11  998.3R
KEWAUNEE LAKESHO 0430   48     310/  8/ 13  998.0R
SHEBOYGAN LAKESH 0400   53     290/ 15/ 18  998.4R
PORT WASHINGTON  0430   54     290/  8/ 15 1000.7R
MILWAUKEE LAKESH 0430   56     300/ 10/ 14   N/A
S MID LAKE BUOY  0350   49 47  250/ 16/ 17  998.3R   5/ 6
KENOSHA   LAKESH 0400   55     270/  7/ 12  999.0
$$

TC  - TEMPERATURE IN CELSIUS
VSB - VISIBILITY IN STATUTE MILES
WCI - WIND CHILL INDEX
HX  - HEAT INDEX





USA.gov is the U.S. government's official web portal to all federal, state and local government web resources and services.